EW2811 Weather Reports


time (UTC)temp
C
wind
direction
speed
KPH
gust
KPH
rain 1hr
cm
rain 24hr
cm
rain mn
cm
humidity
%
barometer
mb
20260503014034 16 269 0.0 0.0 0.00 0.00 0.00 43 1010.1
20260503011038 16 250 0.0 0.0 0.00 0.00 0.00 45 1010.0
20260503011034 16 154 0.0 1.6 0.00 0.00 0.00 43 1010.0
20260503005036 17 290 0.0 0.0 0.00 0.00 0.00 41 1010.2
20260503005032 17 230 0.0 0.0 0.00 0.00 0.00 44 1010.1
20260503004032 17 246 0.0 0.0 0.00 0.00 0.00 42 1010.1
20260503002028 17 189 0.0 0.0 0.00 0.00 0.00 41 1010.3
20260503001033 17 275 0.0 0.0 0.00 0.00 0.00 37 1010.5
20260503001029 17 334 0.0 0.0 0.00 0.00 0.00 40 1010.3
20260503000028 17 209 0.0 0.0 0.00 0.00 0.00 41 1010.5
20260502234031 17 294 0.0 0.0 0.00 0.00 0.00 37 1010.8
20260502234027 17 275 0.0 0.0 0.00 0.00 0.00 39 1010.6
20260502233027 17 275 0.0 0.0 0.00 0.00 0.00 38 1010.6
20260502232031 17 284 0.0 0.0 0.00 0.00 0.00 39 1011.0
20260502231025 17 229 0.0 0.0 0.00 0.00 0.00 37 1010.9
20260502225031 17 285 0.0 0.0 0.00 0.00 0.00 37 1011.2
20260502225026 17 284 0.0 0.0 0.00 0.00 0.00 36 1011.1
20260502223036 17 229 0.0 0.0 0.00 0.00 0.00 39 1011.3
20260502223032 17 277 0.0 0.0 0.00 0.00 0.00 35 1011.3
20260502221024 18 292 0.0 0.0 0.00 0.00 0.00 36 1011.3
20260502220024 18 163 0.0 0.0 0.00 0.00 0.00 36 1011.4
20260502215024 17 247 0.0 0.0 0.00 0.00 0.00 36 1011.5
20260502214024 17 254 0.0 0.0 0.00 0.00 0.00 35 1011.7
20260502213025 18 272 0.0 0.0 0.00 0.00 0.00 34 1012.0
20260502212024 17 155 0.0 0.0 0.00 0.00 0.00 34 1012.1
20260502211022 18 166 0.0 0.0 0.00 0.00 0.00 37 1012.4
20260502210027 18 115 0.0 1.6 0.00 0.00 0.00 35 1012.8
20260502210021 18 259 0.0 9.7 0.00 0.00 0.00 34 1012.4
20260502204020 17 158 0.0 0.0 0.00 0.00 0.00 35 1013.0
20260502203022 17 171 0.0 0.0 0.00 0.00 0.00 35 1013.5
20260502203017 17 170 0.0 0.0 0.00 0.00 0.00 35 1013.1
20260502201022 17 267 0.0 0.0 0.00 0.00 0.00 35 1013.8
20260502201018 17 166 0.0 0.0 0.00 0.00 0.00 35 1013.6
20260502200019 17 205 0.0 3.2 0.00 0.00 0.00 34 1013.9
20260502194018 16 160 0.0 3.2 0.00 0.00 0.00 35 1014.1
20260502194013 16 157 0.0 0.0 0.00 0.00 0.00 38 1014.6
20260502193117 16 182 0.0 1.6 0.00 0.00 0.00 34 1014.3
20260502192120 16 156 0.0 3.2 0.00 0.00 0.00 36 1015.0
20260502191114 16 275 0.0 0.0 0.00 0.00 0.00 34 1014.7
20260502190118 15 190 0.0 1.6 0.00 0.00 0.00 36 1015.2
20260502184015 15 294 0.0 1.6 0.00 0.00 0.00 37 1015.7
20260502184009 15 247 0.0 3.2 0.00 0.00 0.00 39 1015.3
20260502183015 15 167 0.0 1.6 0.00 0.00 0.00 36 1015.7
20260502183010 15 180 0.0 0.0 0.00 0.00 0.00 36 1015.4
20260502164009 13 293 0.0 9.7 0.00 0.00 0.00 37 1017.1
20260502163007 13 215 0.0 1.6 0.00 0.00 0.00 41 1017.2
20260502162017 12 250 0.0 0.0 0.00 0.00 0.00 41 1017.7
20260502162008 13 175 0.0 0.0 0.00 0.00 0.00 39 1017.4
20260502161008 13 302 0.0 0.0 0.00 0.00 0.00 41 1017.5
20260502151003 11 286 0.0 0.0 0.00 0.00 0.00 45 1018.0
20260502122956 4 263 0.0 0.0 0.00 0.00 0.00 71 1018.5
20260502121957 4 271 0.0 0.0 0.00 0.00 0.00 73 1018.4
20260502120957 3 267 0.0 1.6 0.00 0.00 0.00 75 1018.5
20260502114956 2 290 0.0 0.0 0.00 0.00 0.00 81 1018.5
20260502112956 2 290 0.0 0.0 0.00 0.00 0.00 82 1018.3
20260502112952 2 290 0.0 0.0 0.00 0.00 0.00 83 1018.3
20260502110956 1 290 0.0 0.0 0.00 0.00 0.00 83 1018.3
20260502110951 2 290 0.0 0.0 0.00 0.00 0.00 82 1018.3
20260502105950 1 290 0.0 0.0 0.00 0.00 0.00 83 1018.3
20260502103954 1 290 0.0 0.0 0.00 0.00 0.00 82 1018.3
20260502103950 1 290 0.0 0.0 0.00 0.00 0.00 82 1018.3
20260502102102 2 290 0.0 0.0 0.00 0.00 0.00 80 1018.3
20260502101954 1 290 0.0 0.0 0.00 0.00 0.00 81 1018.3
20260502101950 1 290 0.0 0.0 0.00 0.00 0.00 82 1018.3
20260502090950 2 290 0.0 0.0 0.00 0.00 0.00 77 1018.1
20260502070944 3 290 0.0 0.0 0.00 0.00 0.00 74 1018.3
20260502065946 3 290 0.0 0.0 0.00 0.00 0.00 75 1018.3
20260502064943 3 290 0.0 0.0 0.00 0.00 0.00 74 1018.4
20260502063942 3 290 0.0 0.0 0.00 0.00 0.00 74 1018.4
20260502062942 3 290 0.0 0.0 0.00 0.00 0.00 74 1018.4
20260502062054 3 290 0.0 0.0 0.00 0.00 0.00 74 1018.5
20260502061942 3 290 0.0 0.0 0.00 0.00 0.00 74 1018.4
20260502060948 3 290 0.0 0.0 0.00 0.00 0.00 74 1018.5
20260502060942 3 290 0.0 0.0 0.00 0.00 0.00 75 1018.5
20260502053939 3 290 0.0 0.0 0.00 0.00 0.00 74 1018.5
20260502052940 3 290 0.0 0.0 0.00 0.00 0.00 73 1018.5
20260502051940 3 290 0.0 0.0 0.00 0.00 0.00 73 1018.5
20260502050940 4 290 0.0 0.0 0.00 0.00 0.00 72 1018.5
20260502045940 4 290 0.0 0.0 0.00 0.00 0.00 73 1018.5
20260502044941 4 290 0.0 0.0 0.00 0.00 0.00 72 1018.5
20260502044937 4 290 0.0 0.0 0.00 0.00 0.00 73 1018.5
20260502042937 5 290 0.0 0.0 0.00 0.00 0.00 72 1018.5
20260502041937 5 290 0.0 0.0 0.00 0.00 0.00 71 1018.4
20260502040934 5 290 0.0 0.0 0.00 0.00 0.00 71 1018.5
20260502035935 5 290 0.0 0.0 0.00 0.00 0.00 70 1018.5
20260502034935 5 290 0.0 0.0 0.00 0.00 0.00 69 1018.5
20260502033935 5 290 0.0 0.0 0.00 0.00 0.00 68 1018.5
20260502032935 6 290 0.0 0.0 0.00 0.00 0.00 66 1018.6
20260502031933 6 290 0.0 0.0 0.00 0.00 0.00 64 1018.6
20260502030933 6 290 0.0 0.0 0.00 0.00 0.00 63 1018.5
20260502025933 6 290 0.0 0.0 0.00 0.00 0.00 63 1018.5
20260502024932 6 290 0.0 0.0 0.00 0.00 0.00 59 1018.5
20260502023931 7 290 0.0 0.0 0.00 0.00 0.00 56 1018.5
20260502022931 7 290 0.0 0.0 0.00 0.00 0.00 55 1018.5
20260502021931 7 290 0.0 0.0 0.00 0.00 0.00 53 1018.4
20260502020930 7 290 0.0 0.0 0.00 0.00 0.00 51 1018.4
20260502015930 8 290 0.0 0.0 0.00 0.00 0.00 52 1018.3
20260502014931 8 290 0.0 0.0 0.00 0.00 0.00 49 1018.1